ARIANE 2 DEB, 28566

Orbit data source: Space-Track

ARIANE 2 DEB, 28566 is space debris in HEO originally from a launch on Fri, 27 Jan 1989 UTC launched from the French Guiana (FRGUI). Debris objects in space refer to the collection of defunct objects orbiting the Earth. Examples of debris include non-operational satellites, rocket bodies, and fragments generated from explosions, collisions, or faulty payload assembly.

Loading next visibility...
Identifier
28566, 1989-006AH
Orbit
HEO
Last TLE update
2 days ago
Origin
Manufacturer
EADS/LV
Mission
Spacecraft
Bus & Motor
Unknown
Mass
Unknown
Launch date (UTC)
1989-01-27 (36 years ago)
Launch vehicle
Unknown
Launch site
French Guiana (FRGUI)
Object type
Payload
Rocket body
Debris
Shape & HBR
Unknown
Radar Cross Section
Medium (>0.1 m² and <1 m²)

Expand to show TLE details & history

TLE from 2 days ago
0 ARIANE 2 DEB
1 28566U 89006AH  25180.24781014 -.00000094  00000-0  10214-2 0  9997
2 28566   7.2166 321.1723 7081315 335.2767   2.9441  2.28923634104440
Epoch: 2025-06-29T05:56Z
TLE epoch observation values (Epoch: 2025-06-29T05:56:50.796Z)
Latitude
-0.00058°
Longitude
-45.61711°
Altitude
979.784 km
Speed
9.589 km/s
True Right ascension
21h 24m 40s
True Declination
0° 00' 02"
Sunlit
Object was in full shadow at epoch
Visualization orbit readout
Latitude
-3.55336°
Longitude
162.92432°
Altitude
14,817.766 km
Speed
4.606 km/s
Apparent Right ascension
10h 51m 09s
Apparent Declination
-12° 03' 46"
Sunlit
Object is in daylight
Visualization observer readout
Local Sidereal Time
20:45:42
Azimuth
306.42° NW
Elevation
-50.764°
Doppler factor
1
Orbital elements
Apogee altitude
35,170.109 km
Perigee altitude
721.214 km
Semi-major axis
24,323.798 km
Eccentricity
0.70813
Inclination
7.2166°
RAAN
321.1723°
Arg. of periapsis
335.2767°
True anomaly
Unknown
Mean anomaly
2.9441°
Eccentric anomaly
Unknown
Mean motion
0.57213 °/min
Orbital period
629.23 mins
BSTAR
0.0010214
Loading maneuver chart data...
Loading SW <> Apogee altitude chart data...
Loading historical data...
Loading historical data...
Loading historical data...
Loading historical data...
Loading historical data...
Loading historical data...
Loading historical data...

ARIANE 2 DEB Visibility forecast

Observer location: undefined°, undefined°

Span
Click to sort rows by Start time (UTC) header in descending order
Start Az.
Max El. time (UTC)
Max El. Az.
Max El.
End time (UTC)
End Az.
193 mins2025-07-01 15:54:28.022Z103.179° ESE2025-07-01 17:54:28.022Z113.412° SE15.009°2025-07-01 19:07:28.022Z115.24° SE
|